Location: Granada
(37.1830°N, 3.6000°W)
Time: 05:54:57
(UTC+02:00)

Iridium 70 - Visible Passes

Search period start: 20 August 2017 00:00
Search period end: 30 August 2017 00:00
Orbit: 776 x 779 km, 86.4° (Epoch: 19 August)

Date Brightness Start Highest point End Pass type
(mag) Time Alt. Az. Time Alt. Az. Time Alt. Az.
20 Aug 8.3 03:43:41 10° ENE 03:44:29 10° ENE 03:45:18 10° E visible
20 Aug 5.4 05:20:34 10° N 05:25:48 78° W 05:26:50 57° SSW visible
21 Aug 6.0 04:47:08 10° N 04:52:16 55° E 04:52:50 52° ESE visible
21 Aug 7.2 06:29:38 10° NW 06:32:25 15° W 06:33:16 14° W visible
22 Aug 7.1 04:14:05 10° NNE 04:18:37 29° E 04:18:53 29° E visible
22 Aug 6.5 05:54:50 10° NNW 05:59:11 27° W 05:59:18 27° W visible
23 Aug 7.9 03:41:42 10° NE 03:44:50 16° ENE 03:44:57 16° ENE visible
23 Aug 5.8 05:20:48 10° NNW 05:25:23 50° WNW 05:25:23 50° WNW visible
24 Aug 5.9 04:47:09 10° N 04:51:29 61° NNE 04:51:29 61° NNE visible
25 Aug 6.8 04:13:52 10° NNE 04:17:37 37° NE 04:17:37 37° NE visible
25 Aug 7.2 05:55:34 10° NW 05:58:04 18° WNW 05:58:04 18° WNW visible
26 Aug 7.7 03:41:01 10° NNE 03:43:46 21° ENE 03:43:46 21° ENE visible
26 Aug 6.7 05:21:10 10° NNW 05:24:13 28° NW 05:24:13 28° NW visible
27 Aug 8.3 03:09:16 10° NE 03:09:57 11° ENE 03:09:57 11° ENE visible
27 Aug 6.6 04:47:18 10° N 04:50:23 36° NNW 04:50:23 36° NNW visible
28 Aug 7.1 04:13:48 10° N 04:16:35 32° NNE 04:16:35 32° NNE visible
28 Aug 7.7 05:56:50 10° NW 05:57:02 10° NW 05:57:02 10° NW visible
29 Aug 7.7 03:40:39 10° NNE 03:42:49 22° NE 03:42:49 22° NE visible
29 Aug 7.5 05:21:43 10° NNW 05:23:15 17° NW 05:23:15 17° NW visible
